Torna al catalogo

STARLINK-36035

AttivoComunicazioniVLEO
NORAD 67082·PAYLOAD·🇺🇸 United States

Lanciato Dec 14, 2025 da Vandenberg Space Force Base

Loading…

Prossimi Passaggi (prossime 24 ore)

TLE

AggiornatoSource: CelesTrak SupGP

Epoca: Sep 15, 2026, 03:28 UTC

1 67082C 25298H   26258.14493056 -.00044429  00000+0 -37228-2 0  2580
2 67082  69.9993 256.6988 0003869 267.2046 243.0005 14.98356372    10

Traccia STARLINK-36035 in tempo reale con AllMySat

Download on the App Store